| time (UTC) | temp C | wind direction | speed KPH | gust KPH | rain 1hr cm | rain 24hr cm | rain mn cm | humidity % | barometer mb |
| 20260510045004 | 22 | 7 | 6.4 | 16.1 | 0.00 | 0.00 | 0.00 | 41 | 1024.2 |
| 20260510044004 | 21 | 350 | 6.4 | 17.7 | 0.00 | 0.00 | 0.00 | 40 | 1024.3 |
| 20260510043004 | 21 | 12 | 4.8 | 11.3 | 0.00 | 0.00 | 0.00 | 42 | 1024.5 |
| 20260510042004 | 21 | 357 | 4.8 | 11.3 | 0.00 | 0.00 | 0.00 | 43 | 1024.6 |
| 20260510041004 | 21 | 21 | 4.8 | 14.5 | 0.00 | 0.00 | 0.00 | 44 | 1024.9 |
| 20260510040025 | 21 | 14 | 8.0 | 16.1 | 0.00 | 0.00 | 0.00 | 42 | 1025.0 |
| 20260510035025 | 21 | 8 | 3.2 | 12.9 | 0.00 | 0.00 | 0.00 | 46 | 1025.2 |
| 20260510034004 | 20 | 20 | 6.4 | 14.5 | 0.00 | 0.00 | 0.00 | 46 | 1025.4 |
| 20260510033025 | 20 | 9 | 6.4 | 16.1 | 0.00 | 0.00 | 0.00 | 47 | 1025.4 |
| 20260510032004 | 20 | 4 | 6.4 | 17.7 | 0.00 | 0.00 | 0.00 | 50 | 1025.5 |
| 20260510031003 | 19 | 13 | 8.0 | 19.3 | 0.00 | 0.00 | 0.00 | 50 | 1025.7 |
| 20260510030025 | 19 | 19 | 6.4 | 17.7 | 0.00 | 0.00 | 0.00 | 50 | 1025.8 |
| 20260510025003 | 18 | 56 | 6.4 | 16.1 | 0.00 | 0.00 | 0.00 | 52 | 1025.9 |
| 20260510024004 | 18 | 43 | 4.8 | 12.9 | 0.00 | 0.00 | 0.00 | 53 | 1026.1 |
| 20260510023003 | 17 | 50 | 6.4 | 17.7 | 0.00 | 0.00 | 0.00 | 54 | 1026.3 |
| 20260510022024 | 17 | 51 | 3.2 | 17.7 | 0.00 | 0.00 | 0.00 | 55 | 1026.3 |
| 20260510021003 | 17 | 52 | 4.8 | 14.5 | 0.00 | 0.00 | 0.00 | 57 | 1026.5 |
| 20260510020004 | 16 | 42 | 4.8 | 14.5 | 0.00 | 0.00 | 0.00 | 57 | 1026.7 |
| 20260510015003 | 16 | 35 | 4.8 | 11.3 | 0.00 | 0.00 | 0.00 | 59 | 1026.7 |
| 20260510014003 | 16 | 27 | 4.8 | 14.5 | 0.00 | 0.00 | 0.00 | 59 | 1026.8 |
| 20260510013024 | 15 | 68 | 4.8 | 16.1 | 0.00 | 0.00 | 0.00 | 61 | 1026.8 |
| 20260510012003 | 15 | 39 | 4.8 | 12.9 | 0.00 | 0.00 | 0.00 | 61 | 1026.7 |
| 20260510011003 | 14 | 73 | 3.2 | 11.3 | 0.00 | 0.00 | 0.00 | 64 | 1026.7 |
| 20260510010005 | 13 | 41 | 4.8 | 16.1 | 0.00 | 0.00 | 0.00 | 66 | 1026.8 |
| 20260510005003 | 12 | 56 | 4.8 | 17.7 | 0.00 | 0.00 | 0.00 | 69 | 1026.7 |
| 20260510004024 | 12 | 49 | 3.2 | 16.1 | 0.00 | 0.00 | 0.00 | 73 | 1026.7 |
| 20260510003004 | 11 | 146 | 3.2 | 8.0 | 0.00 | 0.00 | 0.00 | 73 | 1026.7 |
| 20260510002004 | 11 | 128 | 3.2 | 9.7 | 0.00 | 0.00 | 0.00 | 74 | 1026.8 |
| 20260510001003 | 10 | 96 | 1.6 | 8.0 | 0.00 | 0.00 | 0.00 | 74 | 1026.7 |
| 20260510000004 | 10 | 116 | 1.6 | 9.7 | 0.00 | 0.00 | 0.00 | 74 | 1026.8 |
| 20260509235024 | 10 | 177 | 0.0 | 6.4 | 0.00 | 0.00 | 0.00 | 74 | 1026.8 |
| 20260509234003 | 10 | 164 | 1.6 | 6.4 | 0.00 | 0.00 | 0.00 | 74 | 1026.8 |
| 20260509233003 | 10 | 84 | 0.0 | 3.2 | 0.00 | 0.00 | 0.00 | 74 | 1026.7 |
| 20260509232003 | 10 | 84 | 0.0 | 3.2 | 0.00 | 0.00 | 0.00 | 73 | 1026.5 |
| 20260509231003 | 10 | 84 | 0.0 | 3.2 | 0.00 | 0.00 | 0.00 | 73 | 1026.4 |
| 20260509230024 | 10 | 88 | 0.0 | 8.0 | 0.00 | 0.00 | 0.00 | 73 | 1026.5 |
| 20260509225004 | 10 | 114 | 0.0 | 6.4 | 0.00 | 0.00 | 0.00 | 73 | 1026.5 |
| 20260509224004 | 10 | 115 | 0.0 | 1.6 | 0.00 | 0.00 | 0.00 | 72 | 1026.6 |
| 20260509223004 | 10 | 97 | 0.0 | 9.7 | 0.00 | 0.00 | 0.00 | 72 | 1026.5 |
| 20260509222004 | 10 | 69 | 1.6 | 6.4 | 0.00 | 0.00 | 0.00 | 72 | 1026.3 |
| 20260509221003 | 10 | 138 | 1.6 | 9.7 | 0.00 | 0.00 | 0.00 | 72 | 1026.1 |
| 20260509220004 | 10 | 38 | 1.6 | 4.8 | 0.00 | 0.00 | 0.00 | 72 | 1026.1 |
| 20260509215003 | 10 | 85 | 1.6 | 11.3 | 0.00 | 0.00 | 0.00 | 72 | 1026.1 |
| 20260509214004 | 10 | 85 | 1.6 | 6.4 | 0.00 | 0.00 | 0.00 | 72 | 1026.0 |
| 20260509213004 | 10 | 92 | 1.6 | 8.0 | 0.00 | 0.00 | 0.00 | 72 | 1026.0 |
| 20260509212004 | 10 | 119 | 1.6 | 8.0 | 0.00 | 0.00 | 0.00 | 72 | 1026.0 |
| 20260509211004 | 10 | 95 | 1.6 | 6.4 | 0.00 | 0.00 | 0.00 | 72 | 1025.9 |
| 20260509210004 | 10 | 144 | 1.6 | 8.0 | 0.00 | 0.00 | 0.00 | 72 | 1025.9 |
| 20260509205004 | 10 | 160 | 1.6 | 6.4 | 0.00 | 0.00 | 0.00 | 72 | 1025.9 |
| 20260509204004 | 10 | 175 | 1.6 | 9.7 | 0.00 | 0.00 | 0.00 | 71 | 1025.6 |
| 20260509203004 | 10 | 226 | 1.6 | 4.8 | 0.00 | 0.00 | 0.00 | 70 | 1025.5 |
| 20260509202003 | 10 | 226 | 3.2 | 4.8 | 0.00 | 0.00 | 0.00 | 69 | 1025.4 |
| 20260509201025 | 11 | 226 | 1.6 | 4.8 | 0.00 | 0.00 | 0.00 | 69 | 1025.5 |
| 20260509200004 | 11 | 72 | 1.6 | 6.4 | 0.00 | 0.00 | 0.00 | 69 | 1025.4 |
| 20260509195004 | 11 | 171 | 1.6 | 6.4 | 0.00 | 0.00 | 0.00 | 69 | 1025.5 |
| 20260509194003 | 11 | 159 | 1.6 | 6.4 | 0.00 | 0.00 | 0.00 | 68 | 1025.5 |
| 20260509193003 | 11 | 136 | 1.6 | 6.4 | 0.00 | 0.00 | 0.00 | 68 | 1025.5 |
| 20260509192003 | 11 | 72 | 1.6 | 6.4 | 0.00 | 0.00 | 0.00 | 68 | 1025.5 |
| 20260509191004 | 11 | 112 | 1.6 | 4.8 | 0.00 | 0.00 | 0.00 | 68 | 1025.5 |
| 20260509190004 | 11 | 135 | 1.6 | 9.7 | 0.00 | 0.00 | 0.00 | 68 | 1025.6 |
| 20260509185004 | 11 | 152 | 1.6 | 9.7 | 0.00 | 0.00 | 0.00 | 68 | 1025.5 |
| 20260509184004 | 11 | 94 | 3.2 | 9.7 | 0.00 | 0.00 | 0.00 | 68 | 1025.6 |
| 20260509183025 | 11 | 72 | 1.6 | 11.3 | 0.00 | 0.00 | 0.00 | 68 | 1025.5 |
| 20260509182004 | 11 | 93 | 0.0 | 6.4 | 0.00 | 0.00 | 0.00 | 67 | 1025.5 |
| 20260509181004 | 11 | 89 | 1.6 | 4.8 | 0.00 | 0.00 | 0.00 | 67 | 1025.7 |
| 20260509180004 | 10 | 88 | 1.6 | 4.8 | 0.00 | 0.00 | 0.00 | 68 | 1025.7 |
| 20260509175004 | 10 | 88 | 3.2 | 6.4 | 0.00 | 0.00 | 0.00 | 68 | 1025.7 |
| 20260509174003 | 11 | 89 | 3.2 | 4.8 | 0.00 | 0.00 | 0.00 | 66 | 1025.7 |
| 20260509173004 | 11 | 89 | 1.6 | 4.8 | 0.00 | 0.00 | 0.00 | 66 | 1025.7 |
| 20260509172004 | 11 | 90 | 1.6 | 6.4 | 0.00 | 0.00 | 0.00 | 67 | 1025.6 |
| 20260509171004 | 10 | 76 | 1.6 | 9.7 | 0.00 | 0.00 | 0.00 | 68 | 1025.7 |
| 20260509170004 | 10 | 74 | 1.6 | 4.8 | 0.00 | 0.00 | 0.00 | 67 | 1025.7 |
| 20260509165003 | 11 | 74 | 1.6 | 3.2 | 0.00 | 0.00 | 0.00 | 66 | 1025.7 |
| 20260509164003 | 11 | 74 | 1.6 | 4.8 | 0.00 | 0.00 | 0.00 | 66 | 1025.7 |
| 20260509163003 | 11 | 74 | 1.6 | 4.8 | 0.00 | 0.00 | 0.00 | 64 | 1025.7 |
| 20260509162003 | 12 | 76 | 1.6 | 4.8 | 0.00 | 0.00 | 0.00 | 62 | 1025.7 |
| 20260509161003 | 12 | 77 | 1.6 | 4.8 | 0.00 | 0.00 | 0.00 | 61 | 1025.7 |
| 20260509160024 | 12 | 98 | 1.6 | 8.0 | 0.00 | 0.00 | 0.00 | 60 | 1025.7 |
| 20260509155003 | 12 | 100 | 3.2 | 6.4 | 0.00 | 0.00 | 0.00 | 61 | 1025.8 |
| 20260509154003 | 12 | 100 | 1.6 | 4.8 | 0.00 | 0.00 | 0.00 | 62 | 1025.9 |
| 20260509153003 | 11 | 100 | 1.6 | 3.2 | 0.00 | 0.00 | 0.00 | 63 | 1025.8 |
| 20260509152004 | 11 | 100 | 1.6 | 3.2 | 0.00 | 0.00 | 0.00 | 64 | 1025.8 |
| 20260509151004 | 11 | 100 | 1.6 | 3.2 | 0.00 | 0.00 | 0.00 | 64 | 1025.9 |
| 20260509150004 | 11 | 100 | 1.6 | 4.8 | 0.00 | 0.00 | 0.00 | 64 | 1026.0 |
| 20260509145003 | 11 | 100 | 1.6 | 4.8 | 0.00 | 0.00 | 0.00 | 64 | 1026.0 |
| 20260509144003 | 11 | 100 | 3.2 | 4.8 | 0.00 | 0.00 | 0.00 | 64 | 1026.0 |
| 20260509143003 | 11 | 100 | 3.2 | 4.8 | 0.00 | 0.00 | 0.00 | 63 | 1026.0 |
| 20260509142003 | 11 | 101 | 3.2 | 4.8 | 0.00 | 0.00 | 0.00 | 63 | 1026.1 |
| 20260509141003 | 11 | 103 | 3.2 | 4.8 | 0.00 | 0.00 | 0.00 | 63 | 1026.0 |
| 20260509140004 | 11 | 105 | 1.6 | 3.2 | 0.00 | 0.00 | 0.00 | 63 | 1025.9 |
| 20260509135003 | 11 | 105 | 1.6 | 4.8 | 0.00 | 0.00 | 0.00 | 64 | 1025.9 |
| 20260509134003 | 11 | 105 | 1.6 | 4.8 | 0.00 | 0.00 | 0.00 | 64 | 1025.9 |
| 20260509133004 | 11 | 105 | 1.6 | 4.8 | 0.00 | 0.00 | 0.00 | 63 | 1025.9 |
| 20260509132004 | 12 | 105 | 1.6 | 4.8 | 0.00 | 0.00 | 0.00 | 62 | 1025.9 |
| 20260509131004 | 12 | 107 | 1.6 | 4.8 | 0.00 | 0.00 | 0.00 | 62 | 1025.8 |
| 20260509130004 | 12 | 109 | 1.6 | 3.2 | 0.00 | 0.00 | 0.00 | 62 | 1025.8 |
| 20260509125004 | 12 | 109 | 1.6 | 3.2 | 0.00 | 0.00 | 0.00 | 62 | 1025.7 |
| 20260509124004 | 12 | 109 | 1.6 | 4.8 | 0.00 | 0.00 | 0.00 | 62 | 1025.6 |
| 20260509123004 | 12 | 109 | 0.0 | 3.2 | 0.00 | 0.00 | 0.00 | 61 | 1025.6 |
| 20260509122004 | 12 | 109 | 0.0 | 4.8 | 0.00 | 0.00 | 0.00 | 61 | 1025.5 |
| 20260509121004 | 12 | 98 | 1.6 | 6.4 | 0.00 | 0.00 | 0.00 | 61 | 1025.4 |
| 20260509120004 | 12 | 90 | 1.6 | 6.4 | 0.00 | 0.00 | 0.00 | 62 | 1025.5 |
| 20260509115004 | 12 | 88 | 1.6 | 3.2 | 0.00 | 0.00 | 0.00 | 62 | 1025.5 |
| 20260509114004 | 13 | 83 | 1.6 | 8.0 | 0.00 | 0.00 | 0.00 | 61 | 1025.4 |
| 20260509113025 | 13 | 80 | 1.6 | 4.8 | 0.00 | 0.00 | 0.00 | 61 | 1025.4 |
| 20260509112004 | 13 | 82 | 1.6 | 3.2 | 0.00 | 0.00 | 0.00 | 61 | 1025.4 |
| 20260509111004 | 13 | 71 | 1.6 | 6.4 | 0.00 | 0.00 | 0.00 | 59 | 1025.3 |
| 20260509110004 | 13 | 39 | 1.6 | 8.0 | 0.00 | 0.00 | 0.00 | 59 | 1025.4 |
| 20260509105024 | 13 | 25 | 0.0 | 6.4 | 0.00 | 0.00 | 0.00 | 60 | 1025.5 |
| 20260509104004 | 13 | 25 | 1.6 | 4.8 | 0.00 | 0.00 | 0.00 | 60 | 1025.3 |
| 20260509103004 | 13 | 25 | 0.0 | 4.8 | 0.00 | 0.00 | 0.00 | 63 | 1025.3 |
| 20260509102003 | 14 | 25 | 1.6 | 3.2 | 0.00 | 0.00 | 0.00 | 63 | 1025.3 |
| 20260509101004 | 14 | 25 | 0.0 | 1.6 | 0.00 | 0.00 | 0.00 | 61 | 1025.2 |
| 20260509100004 | 15 | 25 | 1.6 | 3.2 | 0.00 | 0.00 | 0.00 | 62 | 1025.2 |
| 20260509095004 | 15 | 25 | 1.6 | 3.2 | 0.00 | 0.00 | 0.00 | 61 | 1025.1 |
| 20260509094004 | 16 | 25 | 3.2 | 4.8 | 0.00 | 0.00 | 0.00 | 59 | 1025.0 |
| 20260509093004 | 17 | 25 | 1.6 | 3.2 | 0.00 | 0.00 | 0.00 | 56 | 1024.9 |
| 20260509092025 | 18 | 25 | 3.2 | 4.8 | 0.00 | 0.00 | 0.00 | 52 | 1024.9 |
| 20260509091004 | 20 | 25 | 3.2 | 4.8 | 0.00 | 0.00 | 0.00 | 48 | 1024.9 |
| 20260509090004 | 20 | 25 | 1.6 | 1.6 | 0.00 | 0.00 | 0.00 | 45 | 1024.8 |
| 20260509085004 | 21 | 25 | 1.6 | 3.2 | 0.00 | 0.00 | 0.00 | 40 | 1024.8 |
| 20260509084004 | 21 | 25 | 0.0 | 6.4 | 0.00 | 0.00 | 0.00 | 38 | 1024.8 |
| 20260509083025 | 22 | 24 | 1.6 | 6.4 | 0.00 | 0.00 | 0.00 | 37 | 1024.7 |
| 20260509082004 | 22 | 28 | 3.2 | 6.4 | 0.00 | 0.00 | 0.00 | 36 | 1024.7 |
| 20260509081004 | 22 | 96 | 3.2 | 12.9 | 0.00 | 0.00 | 0.00 | 35 | 1024.7 |
| 20260509080004 | 22 | 61 | 3.2 | 11.3 | 0.00 | 0.00 | 0.00 | 35 | 1024.7 |
| 20260509075004 | 22 | 19 | 3.2 | 9.7 | 0.00 | 0.00 | 0.00 | 35 | 1024.5 |
| 20260509074003 | 22 | 63 | 1.6 | 6.4 | 0.00 | 0.00 | 0.00 | 36 | 1024.4 |
| 20260509073003 | 22 | 60 | 3.2 | 11.3 | 0.00 | 0.00 | 0.00 | 37 | 1024.3 |
| 20260509072003 | 22 | 88 | 4.8 | 11.3 | 0.00 | 0.00 | 0.00 | 36 | 1024.2 |
| 20260509071003 | 22 | 65 | 4.8 | 16.1 | 0.00 | 0.00 | 0.00 | 37 | 1024.1 |
| 20260509070003 | 22 | 54 | 3.2 | 9.7 | 0.00 | 0.00 | 0.00 | 36 | 1024.0 |
| 20260509065003 | 21 | 31 | 4.8 | 11.3 | 0.00 | 0.00 | 0.00 | 37 | 1024.0 |
| 20260509064003 | 21 | 94 | 4.8 | 17.7 | 0.00 | 0.00 | 0.00 | 38 | 1024.0 |
| 20260509063003 | 21 | 97 | 3.2 | 12.9 | 0.00 | 0.00 | 0.00 | 39 | 1024.0 |
| 20260509062003 | 21 | 65 | 4.8 | 16.1 | 0.00 | 0.00 | 0.00 | 39 | 1024.0 |
| 20260509061003 | 21 | 143 | 3.2 | 11.3 | 0.00 | 0.00 | 0.00 | 40 | 1024.1 |
| 20260509060004 | 21 | 77 | 4.8 | 17.7 | 0.00 | 0.00 | 0.00 | 39 | 1024.4 |
| 20260509055024 | 21 | 34 | 4.8 | 16.1 | 0.00 | 0.00 | 0.00 | 41 | 1024.5 |
| 20260509054004 | 21 | 17 | 8.0 | 20.9 | 0.00 | 0.00 | 0.00 | 41 | 1024.4 |
| 20260509053003 | 21 | 62 | 4.8 | 16.1 | 0.00 | 0.00 | 0.00 | 41 | 1024.6 |
| 20260509052003 | 21 | 87 | 4.8 | 16.1 | 0.00 | 0.00 | 0.00 | 44 | 1024.8 |
| 20260509051003 | 20 | 68 | 4.8 | 14.5 | 0.00 | 0.00 | 0.00 | 44 | 1024.8 |
| 20260509050003 | 20 | 53 | 4.8 | 24.1 | 0.00 | 0.00 | 0.00 | 43 | 1025.1 |